PAKSAT-1R

Last updated on Wed Oct 15 2025 00:02:46 GMT+0000 (Coordinated Universal Time)

1 37779U 11042A 25287.20856457 .00000140 00000+0 00000+0 0 9995 2 37779 0.0548 73.2939 0000902 113.3221 309.4295 1.00274516 52015
UTC large
Height (km)
Speed (km/s)
/
Latitude / Longitude
Inclination (degrees)
Orbital Period (minutes)
Azimuth
Elevation
Range (km)
Doppler Factor

Next 0 passes for location: London (51.5072 / 0.1276)

Sorry there are no passes over London.